#timestamp,LO_Frequency,Hit 
1504648815.0,286046995.3,N
1504648815.9,286046995.3,N
1504648835.8,286046995.5,N
1504648855.6,286046995.1,N
1504648875.4,286046994.9,N
1504648895.3,286046993.5,N
1504648915.1,286046990.1,P
1504648935.8,286046998.8,N
1504648955.7,286046995.2,N
1504648975.5,286046996.1,N
1504648995.3,286047001.3,N
1504649015.2,286047007.2,N
1504649035.0,286047007.0,N
1504649035.9,286047007.0,N
1504649055.7,286047010.2,N
1504649075.6,286047009.7,N
1504649095.4,286047012.2,N
1504649115.2,286047013.8,N
1504649135.1,286047013.3,N
1504649136.0,286047013.3,N
1504649155.8,286047014.1,N
1504649175.6,286047013.0,N
1504649195.5,286047012.8,N
1504649215.3,286047014.0,N
1504649235.1,286047012.8,N
1504649255.9,286047014.5,N
1504649275.7,286047017.1,N
1504649295.5,286047016.8,N
1504649315.3,286047018.5,N
1504649335.2,286047018.1,N
1504649355.0,286047020.4,N
1504649355.9,286047020.4,N
1504649375.7,286047020.2,N
1504649395.6,286047019.1,N
1504649415.4,286047021.5,N
1504649435.2,286047019.7,N
1504649455.1,286047020.3,N
1504649456.0,286047020.3,N
1504649475.8,286047020.2,N
1504649495.6,286047019.5,P
1504649515.5,286047003.3,N
1504649535.3,286047005.2,N
1504649555.1,286047006.2,N
1504649575.9,286047005.8,N
1504649595.7,286047006.4,N
1504649615.5,286047006.4,N
1504649635.4,286047006.4,N
1504649655.2,286047010.5,N
1504649675.0,286047010.5,N
1504649675.9,286047010.5,N
1504649695.8,286047008.6,N
1504649715.6,286047008.0,N
1504649735.4,286047007.3,N
1504649755.2,286047007.1,N
1504649775.1,286047007.1,N
1504649776.0,286047007.1,N
1504649795.8,286047005.0,N
1504649815.6,286047006.9,N
1504649835.5,286047006.8,N
1504649855.3,286047008.7,N
1504649875.1,286047006.1,N
1504649895.9,286047008.9,N
1504649915.7,286047008.0,N
1504649935.5,286047009.7,P
1504649955.4,286047002.7,P
1504649975.2,286047001.3,N
1504649995.0,286047001.7,N
1504649995.9,286047001.7,N
1504650015.8,286047006.0,N
1504650035.6,286047004.3,N
1504650055.4,286047004.5,N
1504650075.3,286047006.3,N
1504650095.1,286047006.2,N
1504650096.0,286047006.2,N
1504650115.8,286047005.1,N
1504650135.7,286047005.9,N
1504650155.5,286047003.8,N
1504650175.3,286047004.3,N
1504650195.2,286046998.2,N
1504650215.9,286046993.6,N
1504650235.7,286046990.1,N
1504650255.5,286046988.6,N
1504650275.4,286046992.8,N
1504650295.2,286046988.5,N
1504650315.0,286046987.5,N
1504650315.9,286046987.5,N
1504650335.8,286046988.2,N
1504650355.6,286046985.7,N
1504650375.4,286046988.2,N
1504650395.3,286046989.4,N
1504650415.1,286046988.8,N
1504650416.0,286046988.8,N
1504650435.8,286046986.9,N
1504650455.7,286046987.8,N
1504650475.5,286046988.2,N
1504650495.3,286046986.6,N
1504650515.2,286046983.9,N
1504650535.9,286046982.5,N
1504650555.7,286046986.6,N
1504650575.6,286046989.4,N
1504650595.4,286046988.6,N
1504650615.2,286046989.9,N
1504650635.0,286046987.6,N
1504650635.9,286046987.6,N
1504650655.8,286046988.4,N
1504650675.6,286046986.2,N
1504650695.4,286046985.8,N
1504650715.3,286046982.7,P
1504650735.1,286046991.7,N
1504650755.8,286046990.2,N
1504650775.7,286046990.2,N
1504650795.5,286046994.3,N
1504650815.3,286046991.7,N
1504650835.2,286046993.5,N
1504650855.9,286046994.0,N
1504650875.7,286046994.0,N
1504650895.6,286046991.4,N
1504650915.4,286046993.2,N
1504650935.2,286046991.1,N
1504650955.1,286046985.8,P
1504650956.0,286046985.8,P
1504650975.8,286046996.1,N
1504650995.6,286046998.7,N
1504651015.5,286047007.0,N
1504651035.3,286047010.7,N
1504651055.1,286047013.5,N
1504651075.9,286047014.5,N
1504651095.7,286047017.9,N
1504651115.5,286047017.6,N
1504651135.4,286047021.6,N
1504651155.2,286047021.1,N
1504651175.0,286047023.6,N
1504651175.9,286047023.6,N
1504651195.8,286047021.8,N
1504651215.6,286047019.6,N
1504651235.4,286047023.6,N
1504651255.2,286047021.8,N
1504651275.1,286047023.9,N
1504651276.0,286047023.9,N
1504651295.8,286047020.5,N
1504651315.6,286047023.2,N
1504651335.5,286047022.0,N
1504651355.3,286047023.2,N
1504651375.1,286047021.8,N
1504651395.9,286047021.6,N
1504651415.7,286047024.3,N
1504651435.5,286047023.3,N
1504651455.4,286047025.2,N
1504651475.2,286047022.1,N
1504651495.0,286047024.8,N
1504651495.9,286047024.8,N
1504651515.8,286047026.0,P
1504651535.6,286047012.0,P
1504651555.4,286047012.4,N
1504651575.3,286047011.2,N
1504651595.1,286047010.5,N
1504651596.0,286047010.5,N
1504651615.8,286047010.7,N
1504651635.7,286047009.4,N
1504651655.5,286047009.8,N
1504651675.3,286047009.6,N
1504651695.1,286047008.1,N
1504651715.9,286047006.1,N
1504651735.7,286047007.5,N
1504651755.5,286047006.6,N
1504651775.4,286047007.6,N
1504651795.2,286047008.8,N
1504651815.0,286047006.9,N
1504651815.9,286047006.9,N
1504651835.8,286047012.4,N
1504651855.6,286047014.0,P
1504651875.4,286047002.6,N
1504651895.3,286046998.7,N
1504651915.1,286046999.9,N
1504651935.8,286046999.2,N
1504651955.7,286046997.4,N
1504651975.5,286046997.0,N
1504651995.3,286046999.3,N
1504652015.2,286047000.5,N
1504652035.9,286047000.6,N
1504652055.7,286046995.0,N
1504652075.6,286046994.4,N
1504652095.4,286046991.6,N
1504652115.2,286046989.6,N
1504652135.0,286046985.4,N
1504652135.9,286046985.4,N
1504652155.8,286046985.7,N
1504652175.6,286046985.5,N
1504652195.4,286046986.0,N
1504652215.3,286046986.6,N
1504652235.1,286046988.0,N
1504652255.8,286046986.5,N
1504652275.7,286046985.7,N
1504652295.5,286046984.9,N
1504652315.3,286046982.1,N
1504652335.2,286046982.7,N
1504652355.9,286046979.5,N
1504652375.7,286046977.6,N
1504652395.6,286046977.5,N
